Location: Recife
(8.0585°S, 34.8848°W)
Time: 20:32:35
(UTC-03:00)

Altair - Pass Details

Date: 22 April 2026
Orbit: 1501 x 1682 km, 47.2° (Epoch: 17 May)

Event Time Altitude Azimuth Distance (km) Brightness Sun altitude
Rises 09:07:31 0° 255° (WSW) 4,881 9.8 51.7°
Reaches altitude 10° 09:12:20 10° 275° (W) 3,914 9.4 52.7°
Maximum altitude 09:17:57 16° 310° (NW) 3,440 9.4 53.9°
Drops below altitude 10° 09:23:38 10° 345° (NNW) 3,931 9.9 55.0°
Sets 09:28:35 0° 5° (N) 4,912 10.5 56.0°
